Flag for Spain Weather past 2 weeks in Sevilla, Spain

Now
73 °F

Passing clouds.


Feels Like: 73 °F
Forecast: 64 / 88 °F
Wind: No wind

Location: Sevilla / San Pablo

Current Time: Aug 31, 2015 at 7:48:32 AM

Latest Report: Aug 31, 2015 at 7:30 AM


Visibility: N/A

Pressure: 29.98 "Hg

Humidity: 83%

Dew point: 68 °F

Location of SevillaLocation

Historic Weather in Sevilla — Graph

°F

Sevilla temperature yesterday

Maximum temperature yesterday: 97 °F (at 3:00 PM)
Minimum temperature yesterday: 73 °F (at 8:00 AM)
Average temperature yesterday: 85 °F

Past Weeks' High & Low Weather Summary

 TemperatureHumidityPressure
High102 °F (Aug 28, 5:30 PM)88% (Aug 19, 6:47 AM)30.07 "Hg (Aug 19, 6:47 AM)
Low61 °F (Aug 25, 6:30 AM)14% (Aug 25, 8:00 PM)29.83 "Hg (Aug 17, 5:30 PM)
Average80 °F51%29.96 "Hg
* Reported Aug 16 6:00 AM — Aug 31 6:30 AM, Sevilla, Weather by CustomWeather, © 2015

Note: Actual official high and low records may vary slightly from our data, if they occured in-between our weather recording intervals... More about our weather records

Advertising

Sevilla weather history for previous 24 hours

 ConditionsComfort  
Time TempWeatherWind HumidityBarometerVisibility
6:30 AM
Mon, Aug 31
73 °FPassing clouds.2 mph83%29.98 "HgN/A
6:00 AM73 °FPassing clouds.1 mph83%29.98 "HgN/A
5:30 AM75 °FPassing clouds.3 mph78%29.98 "HgN/A
5:00 AM75 °FPassing clouds.7 mph78%29.98 "HgN/A
4:30 AM75 °FPassing clouds.5 mph78%29.98 "HgN/A
4:00 AM75 °FPassing clouds.6 mph78%29.98 "HgN/A
3:30 AM75 °FPassing clouds.3 mph78%29.98 "HgN/A
1:00 AM77 °FClear.10 mph74%29.98 "Hg10 mi
12:30 AM79 °FClear.10 mph70%29.98 "Hg10 mi
12:00 AM79 °FPassing clouds.9 mph70%29.98 "HgN/A
11:30 PM
Sun, Aug 30
81 °FPassing clouds.6 mph66%29.98 "HgN/A
11:00 PM82 °FPassing clouds.8 mph62%29.95 "HgN/A
10:30 PM82 °FPassing clouds.8 mph62%29.95 "HgN/A
9:30 PM82 °FPassing clouds.10 mph62%29.89 "HgN/A
9:00 PM84 °FPassing clouds.7 mph51%29.89 "HgN/A
8:30 PM86 °FPassing clouds.6 mph52%29.89 "HgN/A
8:00 PM86 °FPassing clouds.12 mph52%29.89 "HgN/A
7:30 PM88 °FPassing clouds.10 mph52%29.89 "HgN/A
7:00 PM90 °FPassing clouds.6 mph41%29.89 "HgN/A
6:30 PM91 °FPassing clouds.8 mph38%29.92 "HgN/A
6:04 PM90 °FRain showers. Passing clouds.12 mph46%29.92 "HgN/A
5:30 PM91 °FPassing clouds.1 mph38%29.89 "HgN/A
5:00 PM90 °FLight rain. Passing clouds.3 mph49%29.92 "Hg5 mi
4:30 PM95 °FPassing clouds.3 mph30%29.89 "HgN/A
4:00 PM95 °FPassing clouds.1 mph30%29.89 "HgN/A
3:30 PM93 °FPassing clouds.6 mph32%29.89 "HgN/A
3:00 PM97 °FPassing clouds.5 mph27%29.92 "HgN/A
2:30 PM95 °FPassing clouds.6 mph28%29.92 "HgN/A
2:00 PM95 °FSunny.2 mph26%29.89 "Hg10 mi
1:30 PM93 °FPassing clouds.5 mph28%29.92 "HgN/A
1:00 PM93 °FSunny.2 mph30%29.92 "Hg10 mi
12:30 PM91 °FSunny.1 mph32%29.92 "Hg10 mi
12:00 PM90 °FPassing clouds.3 mph36%29.92 "HgN/A
11:30 AM88 °FPassing clouds.5 mph35%29.89 "HgN/A
11:00 AM84 °FSunny.2 mph45%29.89 "Hg10 mi
10:30 AM82 °FPassing clouds.5 mph51%29.92 "HgN/A
10:00 AM79 °FPassing clouds.3 mph61%29.92 "HgN/A
9:30 AM79 °FSunny.2 mph61%29.92 "Hg10 mi
9:00 AM77 °FSunny.2 mph65%29.89 "Hg10 mi
8:30 AM75 °FClear.1 mph69%29.89 "Hg10 mi
8:00 AM73 °FClear.3 mph69%29.89 "Hg10 mi
7:30 AM75 °FClear.5 mph65%29.89 "Hg10 mi
7:00 AM75 °FClear.2 mph65%29.89 "Hg10 mi
Weather by CustomWeather, © 2015

See weather overviewHow to use our weather pages